Theta_e
320 316 314 315 316 313 310 307 301 299 298 297 297 297 297 296 296 298 301 298 305 312 313 314 315 316 317 319 319 318 317 315 315 316 316 317 318 317 317 319 319 317 318
319 315 313 314 314 311 308 302 301 299 298 297 296 296 296 296 296 297 302 301 309 310 311 313 314 315 314 315 314 315 314 312 313 313 312 314 314 315 314 314 314 313 314
317 313 311 312 311 308 304 300 300 299 298 297 297 295 295 296 297 297 300 305 307 309 311 314 314 314 313 310 311 314 311 309 310 311 309 311 312 312 312 313 311 311 311
316 312 310 310 309 305 301 299 299 298 298 297 297 297 296 296 296 297 298 304 307 308 310 310 308 307 307 309 314 311 309 312 310 308 309 310 311 311 310 309 310 311 311
314 310 308 307 306 302 300 299 298 298 298 298 298 297 297 297 296 297 299 301 301 302 303 308 306 304 306 308 309 308 308 307 307 307 307 306 306 306 307 307 307 308 308
313 309 306 305 303 300 298 298 298 298 298 298 296 296 296 297 295 296 297 296 295 295 295 295 294 295 299 304 305 306 306 306 304 303 303 303 304 304 305 305 306 305 306
312 309 305 304 301 299 298 298 298 297 298 297 296 296 295 295 295 295 295 294 293 293 293 293 293 297 298 302 305 306 305 302 301 300 300 301 301 302 302 303 303 304 304
311 308 305 303 301 299 298 297 297 297 297 296 298 298 299 295 294 295 294 294 293 292 291 291 291 292 299 303 303 301 299 298 298 298 297 298 299 300 300 301 301 302 302
310 307 305 303 301 299 298 297 297 297 297 296 299 301 303 304 296 294 293 293 292 291 291 290 290 291 297 299 298 298 293 293 294 294 295 296 296 297 298 299 299 300 301
308 307 305 303 301 299 298 298 297 297 297 296 296 298 298 300 301 296 294 293 291 291 291 290 290 290 296 296 292 290 285 286 287 290 291 293 294 295 296 297 298 298 299
304 305 304 303 301 299 298 298 297 296 297 297 296 296 295 296 298 301 297 294 292 291 290 290 290 290 293 294 290 286 285 285 286 286 287 288 290 292 294 295 296 296 297
302 302 303 302 301 300 298 298 297 296 296 297 297 296 296 296 296 298 301 296 294 292 291 290 290 290 291 292 289 287 285 285 286 286 287 287 287 289 291 293 294 294 295
301 300 300 301 300 299 298 297 297 296 296 296 297 297 296 296 297 297 299 296 295 292 291 289 289 290 290 290 289 287 285 285 285 286 287 287 287 287 288 290 292 292 293
300 299 299 298 298 298 298 297 296 296 295 295 296 296 296 296 297 297 298 295 295 292 290 290 289 289 290 289 287 286 285 285 285 285 286 286 286 286 287 289 290 290 291
297 297 297 297 296 296 296 296 296 295 295 295 295 295 295 295 295 296 296 296 296 294 292 291 289 289 289 288 287 286 284 285 285 285 285 285 285 286 287 288 288 289 290
293 294 295 295 295 295 295 295 295 294 294 294 294 294 294 294 294 294 294 295 296 296 296 291 290 289 288 287 286 285 284 284 284 284 285 285 284 285 286 286 287 287 288
291 292 292 292 293 293 294 294 293 294 293 293 293 293 293 293 293 293 293 293 293 295 298 290 290 288 288 286 285 285 283 284 284 284 284 284 284 285 285 285 285 286 286
290 291 290 290 291 291 292 292 292 292 292 292 292 292 292 292 292 292 291 291 291 292 295 288 288 287 287 286 284 284 283 282 283 283 284 283 283 284 283 283 284 284 285
285 286 290 290 290 290 290 291 291 291 291 291 291 291 291 291 291 291 290 290 290 290 291 289 286 286 285 285 283 282 281 281 281 282 282 282 283 283 283 283 283 284 284
284 284 285 285 288 289 289 289 289 290 290 290 290 290 290 290 290 290 290 290 289 289 288 289 285 284 283 282 282 281 281 281 282 282 282 282 282 282 282 282 282 282 282
283 283 283 284 285 287 288 288 288 288 288 288 289 289 289 289 289 289 290 289 288 288 287 287 286 283 282 281 281 281 282 282 282 282 282 282 281 281 282 282 281 281 281
282 282 283 283 284 285 286 287 287 287 287 287 287 288 287 288 288 288 288 289 288 288 287 287 286 285 283 282 281 282 282 284 283 283 282 282 282 281 281 281 281 281 281
281 281 282 283 283 284 285 286 287 287 287 287 287 287 287 287 286 286 287 288 288 288 289 288 287 286 284 282 282 282 282 283 284 283 282 282 282 281 280 281 280 280 281
279 279 280 281 282 283 284 285 286 287 287 287 287 287 286 286 286 285 285 287 287 287 288 288 287 287 285 283 283 283 282 283 282 281 281 280 280 280 280 280 280 280 280
277 278 278 279 280 281 282 284 285 286 287 287 287 287 287 286 286 285 284 285 286 286 286 287 286 286 285 284 284 282 282 282 282 280 279 279 278 279 279 279 279 279 280
276 276 276 277 278 279 280 282 283 285 286 286 287 287 287 286 286 286 285 285 285 286 285 285 284 284 283 283 283 282 282 282 281 279 278 277 277 278 278 278 278 278 278
Wind_Speed
24 23 21 21 20 18 17 16 13 12 11 9 6 4 3 2 2 1 2 2 4 5 2 2 3 5 6 7 8 8 8 9 8 8 8 11 12 11 10 10 10 10 6
26 26 24 23 21 20 18 17 15 14 12 11 9 7 5 3 3 2 2 2 6 8 4 3 3 5 6 6 6 7 7 6 7 6 6 6 8 9 10 10 11 11 10
27 26 25 24 21 21 19 18 16 14 13 11 9 8 6 5 3 4 4 4 5 9 11 7 8 7 6 4 4 9 6 4 6 7 7 7 7 9 8 9 10 11 11
26 27 26 26 25 25 25 22 20 17 14 12 10 8 6 5 6 6 6 6 5 7 10 13 9 7 5 3 7 6 5 6 7 6 8 9 8 8 7 7 9 10 11
28 26 24 25 27 27 26 24 22 21 18 15 11 8 7 6 6 6 8 8 10 9 9 12 9 6 9 6 4 5 5 5 5 7 7 6 7 7 7 7 8 8 8
28 26 24 24 27 25 23 23 22 20 18 17 12 9 8 8 8 8 8 7 8 10 9 9 7 6 8 7 6 6 6 5 4 4 5 5 6 6 6 6 6 7 8
27 29 25 25 28 26 25 25 22 22 18 19 16 7 6 7 8 10 10 9 8 8 8 8 9 7 7 8 7 8 6 4 3 3 4 4 4 4 4 5 5 6 6
24 27 27 28 30 27 25 26 24 21 16 25 11 11 4 5 9 12 12 12 11 12 10 8 9 10 11 12 14 12 7 4 2 2 2 3 4 4 5 5 6 6 7
23 27 29 28 31 34 33 34 32 28 20 25 19 7 3 4 9 12 14 15 15 14 13 12 11 12 13 13 15 13 9 5 3 2 2 3 4 5 6 6 7 7 8
21 24 27 30 32 36 30 33 34 31 25 21 23 25 10 7 4 4 14 16 16 14 13 12 12 14 17 14 17 14 8 6 5 4 1 2 3 4 5 6 6 7 8
20 23 26 28 28 30 34 37 37 37 29 23 26 18 18 11 10 3 4 10 16 17 15 14 14 15 18 19 17 15 8 6 6 6 4 2 1 4 5 6 6 7 7
16 21 25 26 27 28 30 35 39 40 38 31 28 21 21 11 10 8 3 10 13 18 20 19 18 19 20 20 17 17 10 8 8 9 8 7 5 2 1 4 5 6 7
12 15 19 24 27 28 28 30 33 37 40 37 33 33 32 28 13 19 7 7 5 7 13 20 22 23 23 24 25 21 13 11 10 10 9 9 7 5 3 1 2 4 5
11 13 16 21 25 27 27 28 31 33 32 34 35 31 29 30 27 24 21 14 4 4 11 8 22 25 26 27 25 23 17 14 12 11 10 9 7 5 4 3 4 4 5
14 13 14 17 22 25 27 28 29 30 33 36 35 34 33 31 35 34 27 27 13 6 9 19 13 28 27 27 28 23 17 16 14 13 11 10 9 8 7 6 6 5 5
15 16 15 15 20 22 26 28 29 29 31 32 33 34 34 32 31 36 36 29 25 13 4 11 23 25 32 29 29 25 20 18 15 14 14 14 11 9 9 8 7 7 7
18 16 17 17 18 22 23 26 28 29 31 32 33 33 35 36 32 32 35 34 30 21 6 5 21 21 30 30 29 28 23 21 18 19 17 16 13 11 11 10 9 9 9
22 19 17 16 17 19 22 26 27 29 30 30 33 33 34 32 35 31 32 32 33 32 18 11 20 22 25 30 31 26 24 22 20 19 21 17 16 14 12 12 11 10 10
25 22 22 20 17 18 21 24 28 29 30 32 32 34 34 36 36 35 33 32 32 32 30 18 12 21 20 29 26 23 21 20 21 20 18 18 17 17 15 14 13 13 13
24 25 24 22 22 21 21 24 26 28 29 30 33 36 35 38 39 39 37 37 33 33 32 23 18 19 22 23 29 26 21 23 20 21 21 19 17 19 14 16 15 15 13
28 27 27 26 23 20 21 23 25 27 30 31 33 35 40 40 42 42 41 37 36 34 29 27 18 15 19 18 26 22 21 20 23 21 20 20 21 20 16 15 15 13 11
28 27 29 27 26 22 21 22 25 28 29 31 33 34 38 41 47 47 47 45 45 43 34 31 28 26 28 28 29 26 23 14 7 24 23 20 21 20 19 17 15 14 12
24 24 27 25 27 26 22 22 24 29 31 33 33 32 34 38 40 42 46 44 47 51 50 46 38 34 30 35 34 27 28 28 16 18 24 15 22 21 17 16 15 15 14
27 27 27 27 29 31 25 24 26 28 31 34 35 35 35 37 37 37 35 38 44 44 51 46 45 40 38 38 40 39 34 26 16 20 23 10 13 12 11 14 14 15 15
30 31 31 31 30 34 30 29 27 28 30 33 33 35 37 37 38 36 36 38 39 43 38 43 39 35 39 38 41 35 30 24 8 10 21 13 8 8 11 16 17 16 14
32 32 35 35 35 38 37 33 30 29 30 31 31 34 37 41 37 36 38 37 36 39 33 31 30 27 27 33 38 41 38 29 12 7 17 17 11 8 2 4 8 11 14
Wind_Direction
200 196 195 191 192 195 193 197 197 193 191 191 193 196 208 225 241 225 296 107 139 106 126 128 124 117 108 100 109 115 107 97 98 98 97 98 97 89 85 79 69 63 56
200 195 193 193 194 193 193 193 196 191 188 192 193 194 198 207 200 171 122 133 150 132 122 134 148 143 121 116 115 117 112 97 98 90 94 105 91 84 79 66 53 43 43
203 197 194 193 194 197 194 189 188 189 189 187 191 195 196 195 190 179 157 129 142 146 132 127 127 124 133 128 144 139 105 93 114 99 75 80 81 72 75 65 41 37 37
206 199 196 195 192 196 195 192 189 184 182 181 180 185 189 190 189 178 168 154 159 163 164 150 136 114 100 124 119 115 101 104 90 77 76 81 76 72 56 43 44 41 41
207 204 201 197 195 197 195 190 188 187 177 177 174 173 178 187 181 174 174 173 186 171 199 196 193 189 148 148 129 137 124 106 93 82 76 66 62 57 47 37 31 31 31
207 205 203 199 199 197 193 190 189 185 181 172 165 166 174 183 183 180 177 183 190 193 190 192 184 190 161 140 147 147 137 122 97 80 72 65 58 54 46 40 27 17 17
208 206 203 199 203 201 199 195 185 179 178 170 144 155 171 189 192 188 186 188 198 195 205 199 191 167 166 139 154 155 142 131 123 97 79 67 57 48 33 22 20 13 13
213 210 206 199 202 201 201 197 190 179 182 177 178 152 170 199 213 202 194 195 202 207 206 200 206 188 155 184 163 158 143 133 122 84 58 52 46 40 28 19 13 13 12
221 214 210 208 207 206 199 200 196 190 183 194 189 164 155 211 149 196 203 200 197 195 196 198 196 188 166 199 193 200 208 171 142 114 70 43 36 32 23 16 13 10 12
228 226 221 216 211 209 204 203 200 198 194 191 207 223 215 140 179 168 210 207 204 200 194 197 198 192 177 193 193 201 198 204 203 177 150 59 40 35 28 17 11 7 5
236 231 229 228 224 214 208 205 202 200 203 205 203 203 218 224 231 170 160 189 212 213 206 202 203 199 189 204 201 196 197 210 223 218 211 192 101 34 24 11 3 360 358
240 238 234 233 229 224 217 211 211 208 203 204 210 218 207 192 200 198 150 172 189 204 202 204 202 200 197 201 200 210 216 222 224 221 219 214 207 189 46 14 0 350 348
255 252 240 231 231 230 226 220 215 212 210 210 209 204 214 219 229 210 173 155 163 162 201 211 206 202 201 200 212 211 219 231 230 225 224 223 227 227 208 213 311 320 328
281 273 263 243 234 232 231 227 221 219 217 217 216 214 214 216 220 212 205 155 159 157 194 193 206 204 202 206 213 207 220 227 228 230 230 227 229 220 209 229 269 287 305
298 284 269 257 246 237 231 227 227 226 221 220 219 220 220 221 222 224 215 201 182 179 202 197 179 204 203 208 212 207 217 223 218 219 226 228 218 214 218 244 256 274 291
317 300 281 267 252 250 240 230 228 228 228 227 223 219 220 223 225 225 223 219 216 196 184 183 201 197 199 205 214 210 217 225 218 218 222 224 219 224 245 252 265 275 285
338 321 303 286 268 261 247 241 236 234 231 231 228 225 222 219 218 221 223 224 221 213 196 144 194 198 193 200 210 211 219 225 222 220 221 228 222 222 238 245 254 269 286
355 343 326 301 283 273 262 248 241 239 238 237 232 227 225 219 219 216 215 218 222 219 208 162 176 182 197 201 211 214 219 225 224 228 225 224 218 216 226 234 246 261 269
354 352 344 328 308 288 273 262 251 246 241 238 241 237 229 219 217 214 213 212 213 217 211 190 175 189 190 196 197 214 219 231 231 228 237 233 226 212 210 228 245 259 259
343 344 343 334 325 312 290 275 266 257 251 246 241 238 238 228 223 215 211 210 206 205 206 195 189 179 188 198 196 195 210 220 229 233 237 237 236 222 222 232 239 240 240
335 333 333 332 325 308 298 293 277 267 257 254 247 243 238 234 233 225 216 209 203 204 199 195 190 181 189 177 198 195 196 212 224 227 233 237 230 230 243 241 240 233 245
321 320 321 318 317 309 296 278 270 266 263 257 254 249 244 241 235 234 227 225 213 204 202 201 201 201 198 195 190 190 183 171 204 223 219 228 221 221 235 237 233 233 249
306 305 305 304 302 300 295 286 275 267 262 259 259 257 251 244 238 231 227 224 226 221 221 210 205 210 198 194 189 187 190 188 184 187 192 206 216 230 238 236 243 248 248
302 300 295 294 294 293 293 289 281 270 264 260 254 251 252 250 240 227 223 222 223 221 220 216 216 216 212 203 202 199 195 188 167 181 192 189 200 225 232 239 250 264 264
297 295 293 291 287 287 288 286 284 273 265 261 258 252 246 250 247 234 218 221 223 226 222 220 223 216 214 210 210 190 173 176 181 185 201 191 194 212 235 249 259 269 261
287 288 288 285 283 281 282 278 277 271 267 264 262 255 250 245 245 238 226 220 223 224 214 209 210 204 196 191 202 202 188 183 167 163 190 180 176 180 187 278 259 241 242